Previsão horária em Abdulgazino

Hoje, 17 Maio, Segunda-feira

Tempo Temperatura Precipitação Vento Pressão Humidade
00:00 +16°C° 0 mm 1 m/s 715 mmHg 62%
01:00 +16°C° 0 mm 1 m/s 715 mmHg 61%
02:00 +16°C° 0 mm 1 m/s 715 mmHg 63%
03:00 +15°C° 0 mm 1 m/s 715 mmHg 65%
04:00 +15°C° 0 mm 1 m/s 715 mmHg 66%
05:00 +18°C° 0 mm 1 m/s 716 mmHg 60%
06:00 +20°C° 0 mm 1 m/s 716 mmHg 55%
07:00 +23°C° 0 mm 1 m/s 716 mmHg 50%
08:00 +24°C° 0 mm 1 m/s 716 mmHg 42%
09:00 +26°C° 0 mm 2 m/s 716 mmHg 35%
10:00 +29°C° 0 mm 3 m/s 716 mmHg 27%
11:00 +29°C° 0 mm 3 m/s 716 mmHg 25%
12:00 +30°C° 0 mm 3 m/s 716 mmHg 23%
13:00 +30°C° 0 mm 3 m/s 716 mmHg 21%
14:00 +30°C° 0 mm 4 m/s 716 mmHg 24%
15:00 +29°C° 0 mm 4 m/s 716 mmHg 27%
16:00 +28°C° 0 mm 4 m/s 715 mmHg 30%
17:00 +27°C° 0 mm 4 m/s 715 mmHg 37%
18:00 +25°C° 0 mm 3 m/s 715 mmHg 44%
19:00 +22°C° 0 mm 3 m/s 715 mmHg 50%
20:00 +20°C° 0 mm 2 m/s 715 mmHg 56%
21:00 +18°C° 0 mm 2 m/s 714 mmHg 61%
22:00 +18°C° 0 mm 1 m/s 714 mmHg 66%
23:00 +16°C° 0 mm 1 m/s 714 mmHg 67%

Amanhã, 18 Maio, Terça-feira

Tempo Temperatura Precipitação Vento Pressão Humidade
00:00 +16°C° 0 mm 1 m/s 714 mmHg 67%
01:00 +16°C° 0 mm 1 m/s 714 mmHg 68%
02:00 +16°C° 0 mm 1 m/s 713 mmHg 67%
03:00 +16°C° 0 mm 1 m/s 713 mmHg 66%
04:00 +16°C° 0 mm 1 m/s 713 mmHg 65%
05:00 +18°C° 0 mm 1 m/s 713 mmHg 60%
06:00 +20°C° 0 mm 1 m/s 713 mmHg 56%
07:00 +22°C° 0 mm 1 m/s 714 mmHg 52%
08:00 +24°C° 0 mm 2 m/s 714 mmHg 45%
09:00 +26°C° 0 mm 2 m/s 714 mmHg 38%
10:00 +28°C° 0 mm 3 m/s 714 mmHg 31%
11:00 +28°C° 0 mm 3 m/s 713 mmHg 28%
12:00 +29°C° 0 mm 3 m/s 713 mmHg 26%
13:00 +29°C° 0 mm 3 m/s 713 mmHg 23%
14:00 +29°C° 0 mm 3 m/s 713 mmHg 24%
15:00 +29°C° 0 mm 4 m/s 712 mmHg 25%
16:00 +29°C° 0 mm 4 m/s 712 mmHg 26%
17:00 +27°C° 0 mm 4 m/s 712 mmHg 35%
18:00 +25°C° 0 mm 3 m/s 712 mmHg 43%
19:00 +22°C° 0 mm 3 m/s 712 mmHg 52%
20:00 +21°C° 0 mm 3 m/s 712 mmHg 57%
21:00 +19°C° 0 mm 3 m/s 712 mmHg 61%
22:00 +17°C° 0 mm 3 m/s 712 mmHg 66%
23:00 +15°C° 0 mm 4 m/s 712 mmHg 71%

Depois de amanhã, 19 Maio, Quarta-feira

Tempo Temperatura Precipitação Vento Pressão Humidade
00:00 +14°C° 0 mm 5 m/s 712 mmHg 76%
01:00 +14°C° 0 mm 5 m/s 713 mmHg 81%
02:00 +13°C° 0 mm 5 m/s 713 mmHg 83%
03:00 +12°C° 0 mm 5 m/s 713 mmHg 85%
04:00 +10°C° 0 mm 5 m/s 713 mmHg 87%
05:00 +10°C° 0 mm 6 m/s 713 mmHg 85%
06:00 +10°C° 0 mm 6 m/s 714 mmHg 83%
07:00 +10°C° 0 mm 6 m/s 714 mmHg 81%
08:00 +11°C° 0 mm 6 m/s 714 mmHg 74%
09:00 +13°C° 0 mm 6 m/s 715 mmHg 67%
10:00 +15°C° 0 mm 6 m/s 715 mmHg 61%
11:00 +16°C° 0 mm 6 m/s 715 mmHg 55%
12:00 +17°C° 0 mm 6 m/s 715 mmHg 50%
13:00 +19°C° 0 mm 6 m/s 715 mmHg 45%
14:00 +19°C° 0 mm 6 m/s 715 mmHg 44%
15:00 +20°C° 0 mm 6 m/s 715 mmHg 42%
16:00 +20°C° 0 mm 6 m/s 715 mmHg 41%
17:00 +19°C° 0 mm 5 m/s 715 mmHg 45%
18:00 +17°C° 0 mm 5 m/s 715 mmHg 48%
19:00 +17°C° 0 mm 4 m/s 715 mmHg 51%
20:00 +14°C° 0 mm 3 m/s 715 mmHg 54%
21:00 +13°C° 0 mm 3 m/s 715 mmHg 57%
22:00 +12°C° 0 mm 2 m/s 715 mmHg 60%
23:00 +12°C° 0 mm 2 m/s 715 mmHg 63%

20 Maio, Quinta-feira

Tempo Temperatura Precipitação Vento Pressão Humidade
00:00 +10°C° 0 mm 2 m/s 716 mmHg 66%
01:00 +9°C° 0 mm 2 m/s 716 mmHg 69%
02:00 +9°C° 0 mm 2 m/s 716 mmHg 71%
03:00 +8°C° 0 mm 2 m/s 716 mmHg 73%
04:00 +8°C° 0 mm 2 m/s 716 mmHg 75%
05:00 +9°C° 0 mm 2 m/s 716 mmHg 68%
06:00 +12°C° 0 mm 2 m/s 717 mmHg 62%
07:00 +14°C° 0 mm 2 m/s 717 mmHg 55%
08:00 +14°C° 0 mm 3 m/s 717 mmHg 50%
09:00 +17°C° 0 mm 4 m/s 717 mmHg 44%
10:00 +17°C° 0 mm 5 m/s 717 mmHg 39%
11:00 +19°C° 0 mm 5 m/s 717 mmHg 37%
12:00 +20°C° 0 mm 5 m/s 717 mmHg 34%
13:00 +21°C° 0 mm 5 m/s 717 mmHg 32%
14:00 +21°C° 0 mm 5 m/s 717 mmHg 32%
15:00 +21°C° 0 mm 5 m/s 716 mmHg 31%
16:00 +22°C° 0 mm 5 m/s 716 mmHg 31%
17:00 +20°C° 0 mm 4 m/s 716 mmHg 36%
18:00 +19°C° 0 mm 3 m/s 715 mmHg 42%
19:00 +18°C° 0 mm 3 m/s 715 mmHg 47%
20:00 +16°C° 0 mm 2 m/s 715 mmHg 50%
21:00 +15°C° 0 mm 2 m/s 715 mmHg 52%
22:00 +13°C° 0 mm 1 m/s 715 mmHg 54%
23:00 +12°C° 0 mm 1 m/s 715 mmHg 56%

21 Maio, Sexta-feira

Tempo Temperatura Precipitação Vento Pressão Humidade
00:00 +12°C° 0 mm 1 m/s 714 mmHg 57%
01:00 +11°C° 0 mm 1 m/s 714 mmHg 59%
02:00 +11°C° 0 mm 1 m/s 714 mmHg 61%
03:00 +11°C° 0 mm 1 m/s 714 mmHg 63%
04:00 +10°C° 0 mm 1 m/s 715 mmHg 65%
05:00 +12°C° 0 mm 1 m/s 715 mmHg 60%
06:00 +14°C° 0 mm 2 m/s 715 mmHg 55%
07:00 +16°C° 0 mm 2 m/s 715 mmHg 50%
08:00 +18°C° 0 mm 3 m/s 715 mmHg 45%
09:00 +19°C° 0 mm 4 m/s 715 mmHg 41%
10:00 +21°C° 0 mm 5 m/s 715 mmHg 37%
11:00 +22°C° 0 mm 5 m/s 715 mmHg 35%
12:00 +23°C° 0 mm 5 m/s 715 mmHg 32%
13:00 +24°C° 0 mm 6 m/s 715 mmHg 30%
14:00 +25°C° 0 mm 5 m/s 715 mmHg 31%
15:00 +23°C° 0 mm 5 m/s 715 mmHg 32%
16:00 +23°C° 0 mm 5 m/s 715 mmHg 33%
17:00 +22°C° 0 mm 4 m/s 715 mmHg 41%
18:00 +21°C° 0 mm 3 m/s 715 mmHg 49%
19:00 +19°C° 0 mm 2 m/s 715 mmHg 57%
20:00 +18°C° 0 mm 2 m/s 714 mmHg 58%
21:00 +16°C° 0 mm 1 m/s 714 mmHg 60%
22:00 +15°C° 0 mm 1 m/s 714 mmHg 61%
23:00 +15°C° 0 mm 1 m/s 714 mmHg 62%

22 Maio, Sábado

Tempo Temperatura Precipitação Vento Pressão Humidade
00:00 +14°C° 0 mm 1 m/s 714 mmHg 62%
01:00 +14°C° 0 mm 1 m/s 714 mmHg 62%
02:00 +13°C° 0 mm 1 m/s 714 mmHg 63%
03:00 +12°C° 0 mm 0 m/s 714 mmHg 64%
04:00 +12°C° 0 mm 0 m/s 715 mmHg 65%
05:00 +13°C° 0 mm 0 m/s 715 mmHg 62%
06:00 +15°C° 0 mm 0 m/s 715 mmHg 58%
07:00 +17°C° 0 mm 0 m/s 716 mmHg 55%
08:00 +21°C° 0 mm 1 m/s 716 mmHg 50%
09:00 +23°C° 0 mm 1 m/s 716 mmHg 46%
10:00 +24°C° 0 mm 2 m/s 716 mmHg 42%
11:00 +25°C° 0 mm 2 m/s 716 mmHg 39%
12:00 +26°C° 0 mm 3 m/s 716 mmHg 37%
13:00 +27°C° 0 mm 3 m/s 716 mmHg 34%
14:00 +27°C° 0 mm 3 m/s 716 mmHg 33%
15:00 +27°C° 0 mm 3 m/s 716 mmHg 32%
16:00 +27°C° 0 mm 3 m/s 716 mmHg 32%
17:00 +26°C° 0 mm 2 m/s 716 mmHg 38%
18:00 +24°C° 0 mm 1 m/s 715 mmHg 45%
19:00 +23°C° 0 mm 1 m/s 715 mmHg 51%
20:00 +21°C° 0 mm 1 m/s 715 mmHg 53%
21:00 +18°C° 0 mm 0 m/s 715 mmHg 55%
22:00 +17°C° 0 mm 0 m/s 715 mmHg 57%
23:00 +16°C° 0 mm 0 m/s 715 mmHg 58%
Mostrar mais

Necessitamos do seu Consentimento

A Meteoprog e os seus Fornecedores de Serviços podem armazenar e aceder a dados pessoais como cookies, identificadores do dispositivo ou outras tecnologias semelhantes existentes no seu dispositivo e processar estes dados para personalizar conteúdos e anúncios, assim como funcionalidades nas redes sociais e análise de tráfego.

  • Armazenar e/ou aceder a informações no seu dispositivo

    Os cookies, identificadores do dispositivo ou outras informações podem ser armazenados ou acedidos no seu dispositivo, para os fins acima indicados.

  • Anúncios e conteúdos personalizados, medição de anúncios e conteúdos, dados sobre o público-alvo e desenvolvimento de produtos

    Os anúncios e os conteúdos podem ser personalizados com base num perfil. Podem ser adicionados dados adicionais para uma maior personalização dos anúncios e dos conteúdos. A eficácia dos anúncios e dos conteúdos pode ser medida. Podem ser obtidas informações sobre o público que visualizou os anúncios e os conteúdos. Estes dados podem ser usados para desenvolver ou melhorar sistemas, softwares ou a experiência do utilizador.

Ao clicar em "Eu concordo”, permitirá o uso de cookies, identificadores do dispositivo e web beacons mencionados ou outras tecnologias semelhantes. As configurações do navegador do seu dispositivo podem ser alteradas.

Para certos fins, podem ser invocados interesses legítimos ao invés de consentimento. Pode ler mais informação sobre este assunto na nossa Política de Privacidade e Cookies.